Flag for Germany Weather past 2 weeks in Sundern (Sauerland), North Rhine-Westphalia, Germany

50 °F

Passing clouds.

Feels Like: 45 °F
Forecast: 41 / 47 °F
Wind: 15 mph from Southwest

Location: Paderborn / Lippstadt

Current Time: Dec 2, 2015 at 3:18:33 AM

Latest Report: Dec 2, 2015 at 2:20 AM

Visibility: N/A

Pressure: 30.27 "Hg

Humidity: 82%

Dew point: 45 °F

Location of Sundern (Sauerland)Location

Historic Weather in Sundern (Sauerland) — Graph


Sundern (Sauerland) temperature yesterday

Maximum temperature yesterday: 50 °F (at 8:20 PM)
Minimum temperature yesterday: 41 °F (at 8:20 AM)
Average temperature yesterday: 45 °F

Past Weeks' High & Low Weather Summary

High57 °F (Nov 17, 1:20 PM)100% (Nov 19, 8:50 PM)30.27 "Hg (Nov 19, 8:50 PM)
Low30 °F (Nov 22, 9:50 PM)56% (Nov 24, 10:50 AM)29.36 "Hg (Nov 21, 5:20 AM)
Average41 °F83%29.84 "Hg
* Reported Nov 17 1:20 AM — Dec 2 1:50 AM, Sundern (Sauerland), Weather by CustomWeather, © 2015

Note: Actual official high and low records may vary slightly from our data, if they occured in-between our weather recording intervals... More about our weather records


Sundern (Sauerland) weather history for previous 24 hours

Time TempWeatherWind HumidityBarometerVisibility
1:50 AM
Wed, Dec 2
50 °FPartly cloudy.15 mph82%30.27 "HgN/A
1:20 AM50 °FPassing clouds.15 mph82%30.27 "HgN/A
12:50 AM50 °FPartly cloudy.14 mph82%30.27 "HgN/A
12:20 AM50 °FPartly cloudy.13 mph82%30.27 "HgN/A
11:50 PM
Tue, Dec 1
50 °FPartly cloudy.13 mph88%30.27 "HgN/A
10:50 PM50 °FPassing clouds.15 mph94%30.24 "HgN/A
10:20 PM50 °FPassing clouds.15 mph94%30.24 "Hg4 mi
9:50 PM50 °FPassing clouds.14 mph100%30.24 "Hg4 mi
9:20 PM50 °FLight rain. Passing clouds.12 mph100%30.24 "Hg4 mi
8:50 PM50 °FRain. Fog.12 mph100%30.24 "Hg2 mi
8:20 PM50 °FRain. Fog.13 mph94%30.24 "Hg2 mi
7:50 PM48 °FRain. Fog.12 mph100%30.21 "Hg1 mi
7:20 PM48 °FRain. Fog.10 mph100%30.21 "Hg1 mi
6:50 PM48 °FLight rain. Fog.9 mph94%30.21 "Hg2 mi
6:20 PM45 °FLight rain. Fog.5 mph100%30.21 "Hg2 mi
5:50 PM43 °FLight rain. Fog.5 mph100%30.21 "Hg2 mi
5:20 PM43 °FLight rain. Passing clouds.5 mph100%30.21 "Hg4 mi
4:50 PM43 °FLight rain. Partly cloudy.2 mph100%30.21 "Hg4 mi
4:20 PM43 °FLight rain. Partly cloudy.3 mph93%30.21 "Hg4 mi
3:50 PM43 °FLight rain. Broken clouds.6 mph93%30.21 "Hg4 mi
3:20 PM43 °FLight rain. Broken clouds.6 mph93%30.21 "Hg6 mi
2:50 PM43 °FLight rain. Broken clouds.6 mph93%30.21 "Hg4 mi
2:20 PM43 °FLight rain. Partly sunny.6 mph87%30.21 "HgN/A
1:50 PM45 °FPartly sunny.8 mph76%30.21 "HgN/A
1:20 PM45 °FPartly sunny.7 mph76%30.21 "HgN/A
12:50 PM45 °FPartly sunny.7 mph71%30.21 "HgN/A
12:20 PM45 °FPassing clouds.8 mph76%30.21 "HgN/A
11:50 AM45 °FPassing clouds.9 mph76%30.21 "HgN/A
11:20 AM45 °FPassing clouds.8 mph71%30.21 "HgN/A
10:50 AM43 °FPassing clouds.7 mph81%30.21 "HgN/A
10:20 AM43 °FSunny.7 mph81%30.18 "Hg10 mi
9:50 AM41 °FSunny.6 mph87%30.18 "Hg10 mi
8:50 AM41 °FPassing clouds.6 mph87%30.15 "HgN/A
8:20 AM41 °FScattered clouds.6 mph87%30.15 "HgN/A
7:50 AM43 °FPassing clouds.6 mph81%30.12 "HgN/A
7:20 AM43 °FPassing clouds.6 mph81%30.12 "HgN/A
6:50 AM43 °FPassing clouds.7 mph81%30.12 "HgN/A
6:20 AM43 °FPassing clouds.9 mph81%30.09 "HgN/A
5:50 AM43 °FPartly cloudy.8 mph87%30.09 "HgN/A
5:20 AM43 °FPartly cloudy.9 mph87%30.07 "HgN/A
4:50 AM43 °FPartly cloudy.9 mph87%30.07 "HgN/A
4:20 AM43 °FPartly cloudy.8 mph87%30.04 "HgN/A
3:50 AM43 °FPartly cloudy.8 mph93%30.04 "HgN/A
3:20 AM45 °FPartly cloudy.10 mph81%30.01 "HgN/A
Weather by CustomWeather, © 2015

See weather overviewHow to use our weather pages